Location: Unspecified
(0.0000°N, 0.0000°E)
Time: 11:42:16
(UTC+00:00)

Altair - Pass Details

Date: 21 July 2024
Orbit: 1502 x 1682 km, 47.2° (Epoch: 22 June)

Event Time Altitude Azimuth Distance (km) Brightness Sun altitude
Rises 16:48:33 0° 260° (W) 4,828 11.1 18.2°
Reaches altitude 10° 16:53:39 10° 282° (WNW) 3,801 11.8 17.0°
Maximum altitude 16:58:33 15° 313° (NW) 3,377 10.9 15.9°
Drops below altitude 10° 17:03:24 10° 345° (NNW) 3,722 10.1 14.8°
Sets 17:08:22 0° 8° (N) 4,669 10.2 13.6°
